www.pogodaiklimat.ru

Погода и климат >> Архив погоды >> Россия >> Ставропольский край >> Новоалександровск


ПОГОДА в Новоалександровске

  • Прогноз погоды в Новоалександровске
  • Монитор погоды в Новоалександровске

АРХИВ ПОГОДЫ в Новоалександровске

Время (UTC), дата Ветер
(напр.,м/с)
 
Видим.   Явления Облачность Т
(С)
Тd
(С)
f
(%)
Тe
(С)
Тes
(С)
Комфортность P
(гПа)
Po
(гПа)
Тmin
(С)
Tmax
(С)
R
(мм)
R24
(мм)
S
(см)
12 12.06 З 1 20 км 9/6 600 м
[Cb cap Cs]
+30.5 +13.2 35 +32 +37 жарко 1008.4 996.0
15 12.06 штиль 0 10 км гроза, ливневой дождь 9/8 600 м
[Cb cap Cs]
+22.0 +13.2 57 +25 +25 комфорт 1008.4 995.6 +32.0 2
18 12.06 штиль 0 20 км {гроза, ливн. осадки} 10/8 600 м
[Cb cap As op]
+21.6 +18.3 82 +26 +26 душно 1009.2 996.5
21 12.06 В 2 20 км 3/0
[Ci fib]
+22.4 +13.3 56 +25 +25 комфорт 1008.6 995.8
00 13.06 В 1 20 км 3/0
[Ci fib]
+19.5 +12.7 65 +22 +22 комфорт 1008.8 995.9
03 13.06 В 1 20 км 6/0
[Ci fib]
+18.4 +12.2 67 +20 +21 1009.7 996.8 +17.2
06 13.06 С 2 20 км 5/1 600 м
[Cu hum Cc]
+27.1 +12.8 41 +29 +38 жарко 1010.0 997.5
09 13.06 В 3
{10}
20 км 8/4 600 м
[Sc Ci sp]
+29.2 +9.3 29 +29 +37 жарко 1009.8 997.3
12 13.06 ЮВ 2
{10}
20 км 9/8 600 м
[Cb cap Cs]
+30.9 +11.5 30 +31 +34 жарко 1009.6 997.2
15 13.06 Ю 2 10 км слаб. ливневой дождь {гроза} 10/10 600 м
[Cb cap]
+22.7 +16.4 68 +27 +27 душно 1011.6 998.8 +32.1 1
18 13.06 штиль 0 20 км {гроза, ливн. осадки} 10/10 600 м
[Cb cap]
+21.3 +15.7 70 +25 +25 комфорт 1012.1 999.2
21 13.06 В 1 20 км 10/10 600 м
[Sc]
+20.7 +15.7 73 +25 +25 комфорт 1013.3 1000.4
00 14.06 В 1 20 км 9/4 600 м
[Sc Cs]
+19.5 +16.6 83 +23 +23 комфорт 1013.0 1000.1
03 14.06 СВ 3 20 км 8/0 2000 м
[Ac trans Cc]
+20.1 +12.3 61 +22 +23 комфорт 1014.1 1001.2 +19.0
06 14.06 СВ 4-10
{10}
20 км 8/0
[Ci fib]
+23.6 +10.6 44 +25 +31 комфорт 1015.1 1002.3
09 14.06 В 4-10
{10}
20 км 3/0
[Cc]
+29.1 +9.7 30 +29 +41 жарко 1015.2 1002.7
12 14.06 В 3
{10}
20 км 1/0
[Ci fib]
+32.3 +8.0 22 +31 +42 жарко 1013.7 1001.3
15 14.06 СВ 3
{10}
20 км ясно +31.5 +8.6 24 +30 +32 жарко 1013.2 1000.8 +32.4
18 14.06 СВ 2 20 км ясно +25.6 +6.6 30 +25 +25 комфорт 1013.8 1001.1
21 14.06 В 2 20 км ясно +21.6 +3.4 30 +22 +22 комфорт 1013.6 1000.8
00 15.06 В 1 20 км ясно +18.4 +8.2 51 +20 +20 1013.4 1000.4
03 15.06 В 1 20 км ясно +18.3 +10.8 62 +20 +21 1014.1 1001.1 +17.0
06 15.06 В 2 20 км 6/0
[Ci]
+26.3 +16.5 55 +30 +40 душно 1013.2 1000.6
09 15.06 В 3 20 км 8/0
[Ci]
+31.6 +10.9 28 +32 +45 жарко 1012.1 999.7
12 15.06 СВ 3 20 км 6/0
[Ci fib]
+32.6 +8.8 23 +31 +41 жарко 1010.5 998.1
15 15.06 СВ 3 20 км 1/0
[Ci fib]
+32.3 +7.4 21 +31 +33 жарко 1009.8 997.5 +33.6
18 15.06 штиль 0 20 км ясно +23.7 +10.0 42 +25 +25 комфорт 1010.2 997.5
21 15.06 В 1 20 км ясно +22.9 +3.5 28 +23 +23 комфорт 1010.2 997.4
00 16.06 С 1 20 км 3/0
[Cc]
+17.7 +8.9 56 +19 +19 1009.8 996.8
03 16.06 штиль 0 20 км 1/0
[Ci fib]
+17.5 +10.3 63 +18 +19 1009.9 996.9 +16.2
06 16.06 В 1 20 км 3/0
[Cc]
+28.7 +12.2 36 +30 +42 жарко 1009.3 996.8
09 16.06 СВ 3 20 км 1/0
[Cc]
+33.6 +4.4 16 +31 +47 жарко 1008.8 996.5
12 16.06 СВ 2 20 км ясно +34.9 +3.4 14 +32 +45 жарко 1007.6 995.3
15 16.06 СВ 1 20 км 3/0
[Cc]
+34.9 +1.9 13 +32 +34 жарко 1007.2 995.0 +35.7
18 16.06 штиль 0 20 км 8/0
[Ci fib]
+24.9 +10.4 40 +26 +26 жарко 1006.9 994.3
21 16.06 З 1 20 км 4/0
[Ci fib]
+21.0 +13.6 63 +25 +25 комфорт 1007.2 994.5
00 17.06 С 1 20 км ясно +19.4 +10.7 57 +22 +22 комфорт 1008.6 995.7
03 17.06 В 1 20 км ясно +19.1 +13.4 70 +21 +23 комфорт 1009.4 996.5 +18.2
06 17.06 СВ 3 20 км ясно +24.7 +14.7 54 +27 +37 жарко 1010.0 997.4
09 17.06 СВ 2 20 км ясно +30.3 +12.4 33 +31 +50 жарко 1009.9 997.4
12 17.06 СВ 2 20 км ясно +32.9 +10.4 25 +32 +45 жарко 1008.9 996.6
15 17.06 С 2 20 км 3/1 1000 м
[Cu hum Ci sp]
+32.0 +10.0 26 +32 +34 жарко 1008.9 996.6 +33.4
18 17.06 С 2 20 км ясно +26.0 +10.5 38 +27 +27 жарко 1010.1 997.5
21 17.06 СВ 1 20 км ясно +22.8 +9.7 43 +24 +24 комфорт 1011.3 998.5
00 18.06 СВ 1 20 км ясно +19.5 +10.0 54 +22 +22 комфорт 1011.2 998.3
03 18.06 СВ 1 20 км ясно +18.7 +11.0 61 +20 +22 1012.1 999.1 +17.4
06 18.06 В 3 20 км ясно +28.5 +11.7 35 +29 +39 жарко 1011.5 999.0
09 18.06 СВ 3 20 км 3/3 600 м
[Cu hum]
+31.5 +8.4 24 +30 +42 жарко 1011.2 998.8
12 18.06 СВ 2 20 км ясно +33.5 +5.0 17 +31 +44 жарко 1009.9 997.6
15 18.06 В 2 20 км ясно +33.3 +4.5 16 +31 +33 жарко 1009.2 996.9 +33.9
18 18.06 штиль 0 20 км ясно +23.8 +11.9 47 +25 +25 комфорт 1010.2 997.5
21 18.06 штиль 0 20 км ясно +21.3 +8.5 44 +22 +22 комфорт 1010.7 997.9
00 19.06 штиль 0 20 км ясно +17.7 +10.0 61 +18 +18 1010.6 997.6
03 19.06 С 1 20 км ясно +18.6 +10.0 57 +20 +22 1010.7 997.8 +15.7
06 19.06 В 2 20 км ясно +29.4 +9.9 30 +29 +41 жарко 1010.1 997.6
09 19.06 СВ 3 20 км ясно +33.9 +6.3 18 +32 +48 жарко 1009.7 997.4

 

Местоположение метеостанции Новоалександровск (Ставропольский край, Россия): широта 45.50 долгота 41.20 высота над уровнем моря 110 м.

В архиве по умолчанию представлена погода в Новоалександровске за последнюю неделю. Архивные данные за месяц целиком и за предыдущие месяцы, начиная с января 2011 года, Вы можете получить, выбрав интересующий диапазон дат из раскрывающегося списка и нажав кнопку "Ввод!".


*Определитесь, кто Вы:
робот инопланетянин человек

Внимание! Время в таблицах - всемирное. Для получения местного времени необходимо прибавить поправку, которая равна 3 ч.

Смотрите также архив погоды в соседних городах и на ближайших метеорологических станциях:

Погода в Изобильном (Ставропольский край, Россия) (42 км)
Погода в Красногвардейском (Ставропольский край, Россия) (43 км)
Погода в Кропоткине (Краснодарский край, Россия) (50 км)
Погода в Армавире (Краснодарский край, Россия) (58 км)
Погода в Белой Глине (Краснодарский край, Россия) (69 км)
Погода в Ставрополе (Ставропольский край, Россия) (81 км)
Погода в Городовиковске (Калмыкия, Россия) (87 км)
Погода в Тихорецке (Краснодарский край, Россия) (95 км)
Погода в Дондуковской (Адыгея, Россия) (98 км)
Погода в Лабинске (Краснодарский край, Россия) (99 км)

Пояснения к столбцам:

Ветер - указаны скорость ветра в м/с - средняя за 10 мин, порывы в срок и между сроками (в фигурных скобках) и направление, откуда дует ветер: С - северный, СВ - северо-восточный, В - восточный, ЮВ - юго-восточный, Ю - южный, ЮЗ - юго-западный, З - западный, СЗ - северо-западный.
Видимость - горизонтальная дальность видимости в метрах или километрах. При видимости от 1 до 10 км при отсутствии осадков обычно наблюдается дымка, при ухудшении видимости до 1 км и менее - туман. В сухую погоду видимость может ухудшаться дымом, пылью или мглою.
Явления - указаны атмосферные явления, наблюдавшиеся в срок или в последний час перед сроком; фигурными скобками обозначены явления, наблюдавшиеся между сроками (за 1-3 часа до срока); квадратными скобками обозначены град или гололедные отложения с указанием их диаметра в мм.
Облачность - указаны через наклонную черту общая и нижняя облачность в баллах и высота нижней границы облаков в метрах; квадратными скобками обозначены формы облаков: Ci - перистые, Cs - перисто-слоистые, Cc - перисто-кучевые, Ac - высококучевые, As - высокослоистые, Sc - слоисто-кучевые, Ns - слоисто-дождевые, Cu - кучевые, Cb - кучево-дождевые. Подробнее классификацию облаков см. в Атласе облаков (PDF).
T - Температура воздуха - температура, измеренная на высоте 2 м над землей.
Td - Температура точки росы - температура, при понижении до которой содержащийся в воздухе водяной пар достигнет насыщения.
f - Относительная влажность воздуха - влажноcть воздуха, измеренная на высоте 2 м над землей.
Te - Эффективная температура - температура, которую ощущает одетый по сезону человек в тени. Характеристика душности погоды. При расчете учитывается влияние влажности воздуха и скорости ветра на теплоощущения человека.
Tes - Эффективная температура на солнце - температура, которую ощущает человек, с поправкой на солнечный нагрев. Характеристика знойности погоды. Зависит от высоты солнца над горизонтом, облачности и скорости ветра. Ночью, в пасмурную погоду, а также при ветре 12 м/с и более поправка равна нулю.
P - Атмосферное давление - приведенное к уровню моря атмосферное давление.
Po - Атмосферное давление - измеренное на уровне метеостанции атмосферное давление.
Tmin - Минимальная температура - минимум температуры воздуха на высоте 2 м над землей.
Tmax - Максимальная температура - максимум температуры воздуха на высоте 2 м над землей.
R - Количество осадков - Количество выпавших осадков за период времени, мм. При наведении курсора мыши на число - период времени, за который выпало указанное количество осадков.
R24 - Количество осадков - Количество выпавших осадков за 24 часа, мм.
S - Снежный покров - Высота снежного покрова, см. При наведении курсора мыши на число - состояние снежного покрова и степень покрытия местности в баллах.